Regional Weather Roundup
Issued by NWS Grand Forks, ND

Home | Current Version | Previous Version | Graphics & Text | Print | Product List | Glossary On
Versions: 1 2 3 4 5 6 7 8 9 10 11 12 13 14 15 16 17 18 19 20 21 22 23 24 25 26 27 28 29 30 31 32 33 34 35 36 37 38 39 40 41 42 43 44 45 46 47 48 49 50
000
ASUS43 KFGF 261131
RWRFGF
PRAIRIE TO PINES  WEATHER ROUNDUP
NATIONAL WEATHER SERVICE EASTERN NORTH DAKOTA/GRAND FORKS ND
600 AM CDT FRI AUG 26 2016

 **SATELLITE DATA USED TO AUGMENT SKY COVER AT AUTOMATED STATIONS**
 *****  WEATHER ACROSS EASTERN NORTH DAKOTA  *****

CITY           SKY/WX    TMP DP  RH WIND       PRES   REMARKS
GRAND FORKS    CLEAR     48  45  89 SW5       30.07R
GRAND FRKS AFB CLEAR     51  47  89 W7        30.07R
DEVILS LAKE    CLEAR     56  50  80 SW8       30.07F
FARGO          CLEAR     51  47  86 SW5       30.10S
WAHPETON ARPT  SUNNY     50  46  87 CALM      30.13F
$$

 ***** WEATHER ACROSS CENTRAL AND WESTERN NORTH DAKOTA  *****

CITY           SKY/WX    TMP DP  RH WIND       PRES   REMARKS
BISMARCK       CLEAR     42  40  92 S3        30.12S
MINOT          PTCLDY    56  44  64 SW9       30.04F
JAMESTOWN      CLEAR     51  47  86 SW3       30.10F
MINOT AFB      PTCLDY    52  45  76 SW7       30.03S
GARRISON         N/A     47  45  93 S3        30.08S
WILLISTON      MOCLDY    51  42  71 CALM      30.07S
DICKINSON      CLOUDY    46  38  73 S9        30.10F
HETTINGER      CLOUDY    46  39  76 CALM      30.15F
$$

 *****  OTHER AIRPORT OBSERVATIONS IN OUR AREA  *****

CITY           SKY/WX    TMP DP  RH WIND       PRES   REMARKS
WALHALLA       FAIR      45  45 100 CALM      30.05S
GRAFTON AIRPOR FAIR      45  45 100 S6        30.08R
VALLEY CITY AR FAIR      48  48 100 CALM      30.12F
CANDO          FAIR      43  43 100 SE3       30.08S
CAVALIER APRT    N/A     45  45 100 CALM      30.05S
GWINNER        FAIR      48  48 100 SW7       30.13F
SHEYENNE NWR     N/A     46  45  97 SW3       29.95S
ROLLA          FAIR      46  41  81 SW7       30.05F
 ***** THE ABOVE OBSERVATIONS ARE NON NWS ARE NOT QUALITY
       CONTROLLED AND MAY MIS-REPORT RAIN FOR SNOW...
$$

  *****  WEATHER ACROSS NORTHERN MINNESOTA  *****

CITY           SKY/WX    TMP DP  RH WIND       PRES   REMARKS
FLAG ISLAND    CLEAR     55  48  76 CALM      30.05S
WARROAD        CLEAR     46  45  93 SW3       30.08R
ROSEAU         CLEAR     45  39  81 CALM      30.07S
HALLOCK        PTCLDY    46  45  93 SE5       30.06S
THF RVR FALLS  CLEAR     48  47  96 S6        30.10R
BAUDETTE       CLEAR     47  45  93 CALM      30.07S
WASKISH        CLEAR     46  46 100 CALM      30.10R
CROOKSTON      CLEAR     45  45 100 S7        30.10R
STEPHEN NDAWN    N/A     45  45 100 SE3         N/A
GREENBUSH NDAW   N/A     45  43  93 S3          N/A
$$
  *****  WEATHER ACROSS CENTRAL AND WEST MINNESOTA  *****

CITY           SKY/WX    TMP DP  RH WIND       PRES   REMARKS
FOSSTON        CLEAR     46  45  93 S5        30.12R
BEMIDJI        CLEAR     49  48  95 SW3       30.11S
PARK RAPIDS    CLEAR     51  49  92 SW5       30.12S
ELBOW LAKE     FAIR      50  50 100 S5        30.15S
WADENA         CLEAR     48  48 100 SW1       30.13S
DETROIT LAKES  CLEAR     54  50  87 SW3       30.13S
MOORHEAD       CLEAR     48  46  93 S5        30.12S
FERGUS FALLS   CLEAR     52  52 100 CALM      30.16S
MORRIS MN      CLEAR     48  46  93 CALM      30.15S FOG
STAPLES        CLEAR     50  48  93 CALM      30.14S
$$
  *****  WEATHER ELSEWHERE ACROSS MINNESOTA  *****

CITY           SKY/WX    TMP DP  RH WIND       PRES   REMARKS
DULUTH         PTCLDY    54  52  93 W7        30.12R
INTRNTL FALLS  CLEAR     41  41 100 CALM      30.09S
ELY            FOG       46  46 100 CALM      30.11S VSB 3/4
CLOQUET        CLEAR     52  48  87 W3        30.13R
WHEATON        CLEAR     48  48 100 S5        30.16S
BRAINERD       CLEAR     49  49 100 S5        30.14S FOG
HIBBING        FOG       46  46 100 CALM      30.13R VSB 3/4
ALEXANDRIA     CLEAR     52  50  93 SW5       30.16S
SAINT CLOUD    FOG       49  49 100 CALM      30.15S VSB 1
MINNEAPOLIS    PTCLDY    58  54  86 CALM      30.15S
$$

  *****  WEATHER ACROSS SOUTH DAKOTA  *****

CITY           SKY/WX    TMP DP  RH WIND       PRES   REMARKS
SIOUX FALLS    CLOUDY    49  49 100 CALM      30.17S
BROOKINGS      CLEAR     45  45 100 NW3       30.18S FOG
WATERTOWN      PTCLDY    49  47  93 CALM      30.17S
HURON          CLEAR     47  45  93 CALM      30.17S
SISSETON         N/A     49  47  93 CALM      30.12F
ABERDEEN       CLEAR     44  42  93 SE7       30.15S
MITCHELL       CLEAR     50  48  93 CALM      30.18S
PIERRE         CLOUDY    50  47  89 CALM      30.15F
MOBRIDGE       PTCLDY    52  47  83 MISG      30.12F
RAPID CITY     LGT RAIN  54  52  93 W8        30.20R
$$

  *****  SOME WEATHER IN NEARBY STATES *****

CITY           SKY/WX    TMP DP  RH WIND       PRES   REMARKS
GLASGOW MT     LGT RAIN  54  49  83 NE5       30.04F
GREAT FALLS MT CLOUDY    48  43  82 W6        30.17F
CHEYENNE WY    CLOUDY    52  46  80 VRB5      30.19S
SCOTTSBLUFF NE CLOUDY    56  50  80 E6        30.13F
OMAHA NE       CLOUDY    59  56  89 NW3       30.16R
DES MOINES IA  CLOUDY    64  60  87 NE7       30.14S
DAVENPORT IA   CLOUDY    63  60  90 NE5       30.15R
CHICAGO IL     MOCLDY    67  61  81 N7        30.13R
EAU CLAIRE WI  CLEAR     54  53  97 W3        30.14R
LA CROSSE WI   CLEAR     60  59  96 SE3       30.15R
$$

  *****  SOME NATIONAL WEATHER *****

CITY           SKY/WX    TMP DP  RH WIND       PRES   REMARKS
LA GUARDIA NY  CLOUDY    78  70  76 S8        29.98R
RALEIGH NC     PTCLDY    73  70  90 SW5       30.10R
ATLANTA GA     PTCLDY    76  71  85 E3        30.12R
NEW ORLEANS LA CLOUDY    82  77  84 NE9       30.01S HX  90
OKLAHOMA CITY  CLOUDY    69  67  93 NW9       30.08R
ALBUQUERQUE NM CLOUDY    61  56  83 NW7       30.20S
SALT LAKE CITY FAIR      68  35  29 S13       30.02S
LOS ANGELES CA CLOUDY    66  58  75 CALM      29.92S
BOISE ID       FAIR      59  36  42 S5        29.96S
SEATTLE WA     FAIR      68  52  56 SE3       29.96S
$$

*** WEATHER ACROSS MANITOBA...SASKATCHEWAN AND ONTARIO ***
                ***ONTARIO***

CITY           SKY/WX    TMP DP  RH WIND       PRES   REMARKS
GERALDTON      PTCLDY    48  48 100 VRB2      30.03S
THUNDER BAY    MOCLDY    50  48  93 W6        30.06R
SIOUX LOOKOUT  MOCLDY    45  45 100 VRB2      30.05F
TORONTO        PTCLDY    66  64  94 SW5       30.04R
BIG TROUT LK   CLEAR     55  52  88 SW6       29.87R
PICKLE LAKE    PTCLDY    48  46  93 SW7       30.00
DRYDEN         CLEAR     52  52 100 S7        30.06S
KENORA         PTCLDY    52  50  93 CALM      30.06S
$$
                *** MANITOBA***

CITY           SKY/WX    TMP DP  RH WIND       PRES   REMARKS
BRANDON        PTCLDY    43  41  93 N5        30.01F
DAUPHIN        CLEAR     55  46  71 SW10      29.97S
ISLAND LAKE    PTCLDY    57  54  88 SW8       29.89S
PILOT MOUND      N/A     43  41  93 S5          N/A
THE PAS        MOCLDY    57  52  82 W3        29.88S
THOMPSON       CLOUDY    55  54  94 N8        29.88S
WINNIPEG       PTCLDY    50  45  81 S7        30.04R
LYNN LAKE      CLOUDY    50  48  93 MISG      29.94F
CHURCHILL      CLOUDY    46  41  81 N15       29.88S
GILLAM         MOCLDY    50  46  87 NE14      29.87R
$$
                ***SASKATCHEWAN***

CITY           SKY/WX    TMP DP  RH WIND       PRES   REMARKS
ESTEVAN        MOCLDY    54  50  87 SW6       30.04S
KINDERSLEY     LGT RAIN  54  52  94 NW8       30.02S
LLOYDMINSTER   CLEAR     48  48 100 NW7       30.02S
PRINCE ALBERT  LGT RAIN  55  55 100 W3        29.92
REGINA         MOCLDY    46  46 100 SW5       30.00S
YORKTON        CLOUDY    55  52  88 S8        29.96F
N. BATTLEFORD  MOCLDY    54 N/A N/A NW7       30.00S
LA RONGE       CLOUDY    57  55  94 N6        29.93S
SASKATOON      CLOUDY    54  54 100 NW7       29.96F
SWIFT CURRENT  CLOUDY    52  52 100 W13       30.01F
$$
NOTE: THESE ARE AUTOMATED STATIONS WITH LIMITED QUALITY CONTROL
      "FAIR" INDICATES FEW OR NO CLOUDS BELOW 12,000 FEET WITH NO
      SIGNIFICANT WEATHER AND/OR OBSTRUCTIONS TO VISIBILITY.
      SKY/WX - SKY CONDITION AND SIGNIFICANT WEATHER.
      TMP - AIR TEMPERATURE.    DP   - DEWPOINT TEMPERATURE.
      RH  - RELATIVE HUMIDITY.  PRES - PRESSURE.
      HX  - HEAT INDEX.         WCI  - WIND CHILL INDEX.
$




USA.gov is the U.S. government's official web portal to all federal, state and local government web resources and services.